Temp
25 22 22 23 22 24 25 25 25 28 27 24 25 24 21 22 22 22 22 22 22 22 23 22 22 22 22 22 22 21 22 22 21 21 20 20 20 20 20 20 19 19 19 19
22 21 23 24 23 24 23 25 26 26 26 24 23 23 22 22 22 22 22 22 23 22 22 23 23 22 22 22 22 22 21 21 21 21 21 20 20 20 20 20 19 19 19 19
22 26 26 26 25 26 26 25 27 27 25 23 23 23 23 23 23 23 23 23 23 24 24 24 24 24 23 23 23 22 22 21 22 21 21 20 20 20 20 20 19 19 19 19
23 25 26 28 28 24 27 27 27 26 24 23 23 21 22 22 22 22 23 23 24 23 24 24 24 24 24 24 23 23 22 22 22 22 21 21 21 20 20 20 19 21 18 18
26 27 28 28 28 26 27 27 26 26 22 23 23 21 21 21 22 20 21 24 24 24 25 25 25 25 25 24 24 24 23 23 23 22 22 21 20 20 20 20 19 19 19 19
25 27 27 27 27 27 24 24 20 18 18 21 23 21 20 20 23 20 21 23 24 24 25 25 25 25 25 24 24 23 23 23 23 22 21 20 20 21 20 20 20 20 19 19
26 27 27 28 27 26 23 20 19 22 19 21 20 20 21 22 22 22 21 22 24 24 25 25 25 25 24 24 24 23 23 23 22 22 21 22 21 21 20 21 20 20 20 20
23 25 27 28 27 25 23 21 19 24 20 20 20 22 22 21 23 23 23 24 24 25 26 25 25 25 24 24 23 23 23 23 22 22 22 22 21 21 20 20 20 20 20 20
22 25 26 27 26 26 24 22 20 17 16 19 18 21 23 20 20 22 22 23 24 25 25 25 25 25 24 24 24 23 22 22 22 22 22 21 21 20 20 20 19 19 19 19
23 25 25 27 26 24 25 20 22 17 22 22 19 19 20 21 20 20 20 21 23 24 24 24 24 25 24 24 23 22 22 22 22 21 21 20 20 20 20 20 20 19 19 18
21 22 25 25 24 23 23 21 16 16 16 18 19 20 19 20 19 19 20 23 23 23 23 24 24 24 23 23 22 22 22 22 21 21 21 21 21 21 20 19 19 19 18 18
21 18 21 24 22 21 23 21 18 18 20 15 16 19 21 18 20 21 21 22 23 23 24 24 24 23 23 22 22 21 21 21 21 21 20 20 20 20 19 18 18 18 18 18
20 18 19 21 21 23 23 21 16 14 14 16 18 19 20 20 20 22 22 23 23 23 23 23 22 22 22 21 21 21 21 21 20 20 20 20 20 19 18 17 17 17 16 16
22 15 19 21 21 20 22 22 19 18 17 16 16 19 22 21 19 19 21 22 23 22 22 22 22 21 21 21 21 20 20 20 20 20 20 19 19 18 18 18 17 16 16 16
19 19 19 18 21 22 22 22 21 22 19 21 20 19 20 19 18 19 21 20 21 21 21 21 22 22 21 21 20 20 20 20 21 20 19 18 18 17 17 17 17 15 15 15
15 18 19 19 20 21 21 21 21 22 19 20 20 19 17 20 21 20 20 20 20 20 21 21 21 21 20 20 20 21 21 20 19 18 17 17 17 17 17 16 15 15 14 14
16 15 17 19 18 20 20 20 20 20 20 20 19 19 17 17 16 17 18 19 20 21 20 20 20 20 20 20 20 20 20 19 18 17 17 17 17 17 17 16 15 14 14 13
14 13 13 15 17 19 19 18 20 19 19 18 18 17 17 16 18 19 19 20 20 20 20 20 20 20 20 20 20 19 19 18 17 17 16 16 16 16 16 14 14 13 13 13
13 13 13 15 15 17 20 19 18 20 18 17 17 16 16 18 19 18 19 20 20 20 20 20 20 19 19 19 19 18 17 17 16 16 16 16 15 15 14 13 13 13 13 13
13 12 15 12 17 17 17 20 21 19 17 18 17 16 17 18 15 14 20 20 20 19 19 19 19 19 18 18 17 17 17 16 16 15 15 15 15 13 13 12 12 13 13 13
14 12 15 13 16 15 17 19 21 19 16 18 18 18 18 16 18 19 19 19 19 19 18 18 17 17 17 16 16 16 16 15 15 14 14 14 13 12 12 12 12 12 12 12
16 14 13 11 15 17 16 19 18 16 16 18 18 19 18 19 19 19 19 19 18 18 17 16 16 16 16 16 15 15 15 14 13 14 14 13 12 12 11 11 12 12 12 12
16 14 14 13 13 14 15 16 17 17 18 18 19 19 19 19 19 18 17 17 16 15 16 16 15 15 15 14 13 13 13 12 13 13 13 12 11 11 11 11 11 11 12 11
14 13 12 13 15 15 16 17 18 19 19 19 19 19 18 18 18 17 16 15 15 16 15 15 14 14 13 13 13 12 12 12 12 12 12 11 11 11 11 10 10 10 11 11
13 13 11 12 14 15 16 17 17 18 18 18 18 18 17 16 15 15 14 14 14 13 13 13 13 13 13 13 12 12 12 12 12 12 11 11 11 10 10 10 10 10 11 11
13 12 12 12 15 15 16 16 17 17 17 17 16 15 15 14 14 14 13 13 12 13 13 13 12 12 12 12 11 11 11 11 11 11 11 10 10 10 10 10 10 11 10 11
Height
1506 1514 1520 1511 1511 1509 1510 1514 1518 1504 1501 1510 1514 1516 1520 1521 1524 1526 1528 1530 1533 1532 1538 1543 1547 1550 1553 1556 1559 1561 1564 1567 1569 1572 1574 1575 1575 1576 1578 1579 1581 1582 1584 1585
1512 1519 1503 1502 1505 1508 1512 1516 1515 1507 1503 1509 1519 1523 1521 1522 1521 1521 1524 1527 1530 1534 1537 1540 1543 1547 1550 1553 1556 1559 1563 1565 1568 1570 1572 1572 1573 1574 1576 1577 1578 1578 1579 1580
1514 1501 1498 1500 1504 1508 1509 1515 1511 1511 1509 1512 1519 1531 1525 1523 1523 1525 1525 1526 1531 1532 1534 1537 1540 1543 1548 1551 1554 1557 1561 1563 1565 1567 1569 1570 1571 1571 1571 1573 1573 1572 1573 1574
1507 1496 1497 1497 1500 1505 1514 1501 1502 1509 1520 1541 1521 1558 1531 1523 1522 1521 1522 1524 1526 1530 1534 1537 1540 1543 1545 1548 1553 1557 1559 1561 1563 1564 1566 1566 1567 1566 1566 1567 1568 1566 1566 1567
1503 1496 1496 1500 1499 1499 1505 1500 1505 1509 1524 1529 1531 1549 1532 1524 1524 1520 1517 1519 1524 1528 1531 1535 1539 1542 1545 1548 1551 1552 1554 1556 1558 1560 1562 1561 1562 1560 1560 1562 1563 1564 1563 1562
1496 1492 1492 1493 1494 1495 1499 1506 1517 1527 1535 1553 1535 1543 1539 1528 1511 1516 1515 1517 1521 1526 1529 1533 1538 1541 1544 1547 1547 1548 1550 1553 1556 1558 1560 1560 1559 1559 1559 1558 1559 1558 1558 1559
1497 1494 1489 1489 1497 1497 1503 1523 1555 1549 1561 1557 1535 1543 1527 1511 1508 1508 1510 1515 1519 1524 1527 1531 1535 1538 1540 1542 1544 1547 1549 1551 1555 1556 1558 1558 1558 1557 1556 1555 1554 1553 1552 1552
1516 1518 1492 1486 1491 1503 1511 1518 1551 1555 1568 1556 1536 1538 1523 1507 1504 1507 1512 1514 1518 1522 1526 1529 1533 1536 1538 1541 1543 1546 1549 1551 1553 1555 1555 1556 1555 1555 1553 1552 1550 1549 1547 1546
1515 1508 1488 1487 1488 1492 1510 1525 1521 1552 1561 1560 1551 1529 1511 1507 1507 1507 1513 1515 1517 1521 1525 1528 1532 1535 1537 1540 1542 1545 1547 1550 1551 1552 1552 1552 1553 1552 1550 1548 1546 1543 1541 1540
1493 1509 1492 1489 1488 1493 1497 1510 1533 1546 1556 1558 1555 1544 1534 1515 1514 1511 1514 1515 1517 1521 1524 1528 1530 1532 1535 1538 1541 1543 1546 1547 1548 1549 1550 1550 1550 1548 1546 1544 1540 1538 1535 1533
1490 1499 1501 1491 1499 1505 1510 1519 1532 1541 1552 1564 1568 1547 1513 1510 1507 1507 1507 1510 1514 1518 1522 1525 1528 1530 1533 1536 1539 1541 1543 1545 1546 1547 1547 1546 1544 1541 1539 1537 1534 1531 1528 1526
1486 1504 1516 1504 1499 1498 1498 1509 1520 1543 1546 1559 1557 1543 1504 1504 1504 1505 1506 1508 1513 1517 1520 1523 1526 1529 1531 1534 1536 1539 1540 1542 1543 1543 1542 1540 1538 1536 1532 1530 1527 1525 1521 1518
1482 1508 1529 1522 1511 1499 1505 1508 1519 1527 1537 1550 1554 1540 1503 1502 1502 1504 1507 1509 1513 1517 1518 1520 1523 1526 1529 1533 1536 1537 1538 1538 1538 1537 1536 1535 1532 1528 1525 1522 1519 1516 1513 1510
1472 1503 1507 1520 1510 1505 1511 1508 1513 1518 1539 1544 1542 1525 1507 1502 1503 1501 1503 1506 1509 1512 1515 1518 1522 1526 1529 1532 1533 1534 1535 1535 1535 1533 1531 1528 1525 1521 1517 1513 1509 1506 1504 1500
1474 1500 1502 1504 1498 1498 1503 1506 1508 1510 1519 1525 1522 1524 1509 1504 1502 1500 1500 1504 1508 1511 1514 1518 1523 1526 1528 1530 1531 1532 1532 1531 1529 1527 1525 1521 1518 1514 1508 1503 1499 1497 1495 1491
1477 1503 1498 1509 1502 1500 1507 1505 1505 1506 1516 1515 1516 1519 1504 1501 1500 1501 1503 1505 1508 1512 1517 1520 1523 1526 1528 1529 1529 1528 1527 1526 1523 1521 1518 1514 1509 1504 1499 1493 1489 1487 1485 1482
1483 1498 1508 1518 1509 1506 1519 1508 1506 1508 1508 1511 1520 1510 1505 1503 1503 1503 1504 1508 1512 1515 1519 1522 1524 1526 1527 1527 1525 1522 1521 1519 1516 1514 1511 1507 1502 1495 1490 1485 1480 1478 1476 1475
1484 1498 1511 1526 1516 1532 1507 1499 1499 1504 1506 1506 1506 1505 1504 1504 1504 1505 1509 1511 1515 1518 1520 1522 1523 1523 1523 1522 1520 1517 1515 1513 1510 1508 1504 1500 1494 1488 1482 1478 1474 1471 1470 1467
1472 1491 1518 1526 1532 1521 1503 1500 1503 1503 1510 1502 1503 1505 1503 1504 1506 1509 1511 1512 1515 1517 1519 1520 1520 1520 1519 1517 1515 1511 1509 1507 1505 1501 1497 1491 1486 1480 1475 1471 1469 1466 1463 1461
1479 1483 1500 1527 1524 1532 1505 1490 1490 1492 1515 1497 1500 1504 1504 1505 1516 1512 1511 1513 1515 1517 1517 1517 1517 1515 1513 1511 1509 1505 1502 1500 1497 1494 1489 1484 1479 1474 1469 1466 1464 1460 1457 1454
1497 1503 1510 1522 1519 1513 1493 1490 1490 1511 1512 1492 1496 1499 1502 1506 1508 1509 1511 1513 1514 1515 1515 1514 1513 1511 1509 1506 1502 1498 1494 1491 1490 1485 1481 1477 1471 1468 1465 1460 1458 1455 1451 1448
1493 1505 1514 1521 1518 1515 1492 1490 1498 1493 1490 1492 1497 1500 1504 1506 1508 1510 1511 1512 1512 1512 1512 1511 1508 1506 1503 1499 1494 1489 1486 1485 1482 1478 1473 1469 1466 1462 1459 1455 1452 1449 1445 1442
1493 1493 1500 1504 1505 1493 1491 1490 1489 1490 1490 1496 1499 1502 1504 1507 1508 1510 1510 1510 1511 1510 1509 1506 1502 1498 1495 1490 1486 1481 1479 1477 1475 1470 1466 1462 1460 1456 1453 1448 1445 1442 1439 1436
1488 1489 1495 1497 1495 1493 1491 1491 1492 1494 1496 1499 1501 1503 1505 1507 1508 1508 1508 1508 1507 1506 1503 1501 1497 1493 1489 1485 1482 1479 1475 1471 1467 1463 1460 1457 1453 1450 1446 1442 1439 1435 1433 1431
1486 1487 1495 1498 1495 1494 1494 1494 1495 1497 1499 1500 1502 1504 1505 1505 1506 1506 1506 1505 1504 1502 1500 1497 1493 1490 1485 1482 1478 1475 1470 1466 1461 1457 1454 1452 1449 1445 1440 1436 1433 1429 1427 1425
1481 1485 1492 1496 1488 1491 1494 1495 1497 1498 1500 1501 1502 1502 1503 1504 1504 1504 1504 1503 1501 1499 1496 1493 1490 1486 1482 1478 1474 1470 1466 1461 1457 1453 1450 1447 1444 1442 1437 1432 1427 1424 1421 1419
Wind_Speed
2 3 6 8 6 4 2 2 1 3 2 6 2 2 5 15 16 18 22 26 27 30 25 25 27 25 26 26 24 25 24 20 21 24 21 20 19 18 17 17 16 17 16 17
4 5 6 4 5 3 2 1 3 3 5 6 3 5 4 9 13 23 27 29 34 30 27 26 25 26 27 27 27 26 22 25 23 22 23 23 23 22 20 20 20 20 19 19
5 4 3 5 4 4 1 4 3 3 3 7 7 5 2 2 9 14 22 29 26 33 31 29 28 27 25 26 25 26 25 24 23 23 23 24 26 27 25 22 23 20 21 24
5 5 3 2 1 5 3 2 1 6 4 4 3 4 5 2 4 8 23 27 31 29 29 29 28 28 27 25 25 25 24 22 20 22 23 26 25 27 25 24 24 22 21 23
5 1 2 2 5 6 3 3 3 2 4 4 3 4 6 2 6 8 16 30 32 31 29 27 26 24 22 17 16 19 18 19 23 21 19 20 23 25 23 26 26 20 18 20
5 3 3 6 3 0 6 5 7 5 3 2 2 5 5 6 12 5 5 22 30 28 27 25 22 19 17 18 17 17 19 17 17 18 15 14 15 16 21 22 22 21 21 22
3 3 3 3 4 2 6 7 3 4 5 5 0 3 7 5 3 10 14 23 26 26 23 23 23 21 20 21 20 17 15 14 12 12 11 9 11 13 14 15 17 18 19 20
5 3 3 2 6 7 3 6 5 2 2 4 3 3 4 7 10 16 22 26 24 24 23 23 21 22 20 17 17 17 17 15 13 11 9 9 12 14 16 17 18 20 20 21
5 4 2 1 3 5 4 4 4 7 3 3 4 6 3 5 4 18 18 24 27 27 26 25 21 19 17 16 16 16 14 11 11 10 10 12 16 19 22 24 26 26 26 28
7 3 2 3 3 11 5 6 4 3 2 3 5 5 5 2 4 6 11 23 29 27 26 24 20 19 18 16 16 14 13 12 10 12 16 18 18 19 23 28 29 28 30 32
5 4 4 1 4 6 2 2 7 5 4 5 1 6 6 7 9 13 19 31 32 31 27 23 22 20 19 18 16 15 14 14 16 16 13 17 21 25 26 27 30 33 32 32
6 5 3 1 4 2 1 4 5 5 4 1 3 6 2 6 10 15 17 27 29 29 26 24 23 21 19 18 17 16 13 14 13 14 16 20 25 29 30 30 31 34 36 40
8 0 3 7 6 3 6 3 5 6 4 6 6 6 2 3 6 15 17 22 26 28 25 23 21 20 19 18 15 14 14 13 13 14 19 23 28 30 31 33 35 34 34 34
10 4 7 8 8 5 5 3 4 5 4 5 5 5 5 4 5 10 17 23 27 26 22 20 19 19 17 14 12 11 10 12 16 23 25 28 30 31 34 36 34 34 34 37
5 5 3 4 4 4 5 5 6 3 5 5 3 5 7 7 7 11 17 19 21 21 20 20 18 16 15 14 11 11 15 20 26 26 27 28 31 36 38 36 33 34 37 36
3 2 3 5 4 5 4 4 5 3 4 2 2 6 7 7 8 12 16 20 20 18 16 15 15 14 12 11 13 15 21 26 26 25 27 31 36 38 40 37 32 33 34 30
4 6 3 3 3 3 3 7 5 3 2 5 5 7 6 4 2 8 15 15 16 16 15 14 13 12 13 14 16 24 26 27 27 28 30 34 35 39 39 36 31 29 28 28
6 5 3 3 2 1 6 4 4 6 3 4 3 2 1 6 9 10 11 11 10 10 10 10 12 14 16 19 24 29 30 29 30 31 33 36 39 40 37 32 28 24 26 27
4 6 4 5 4 4 1 4 7 7 6 5 5 4 9 15 15 9 11 9 7 5 8 12 15 18 21 25 30 32 32 33 31 34 35 39 40 38 31 25 23 25 24 26
7 8 5 3 5 7 8 4 10 7 2 10 10 11 13 7 3 4 10 7 6 7 9 12 15 21 25 26 27 32 36 35 36 34 37 39 36 31 25 23 25 25 25 26
4 4 6 3 3 6 5 4 9 6 7 17 20 21 16 4 4 4 9 5 7 10 13 17 19 23 25 28 31 35 35 34 32 32 33 34 28 24 25 24 25 26 25 25
5 6 3 3 3 6 4 3 7 4 5 20 15 12 10 6 5 4 6 9 12 14 16 16 21 26 29 31 33 36 31 27 26 29 31 29 25 23 25 26 26 25 24 25
2 4 5 6 5 3 4 1 6 9 23 16 16 11 8 7 6 6 8 9 10 12 16 21 26 32 33 28 26 27 22 19 25 27 27 27 26 28 29 29 29 28 25 24
3 2 4 3 2 3 8 13 16 15 16 13 9 7 4 3 5 7 6 8 11 16 21 23 24 25 26 24 20 20 21 23 26 27 25 25 25 26 28 27 26 25 25 23
3 3 5 1 2 4 5 10 12 12 11 8 7 5 5 4 4 5 6 10 13 15 17 19 21 22 23 23 24 24 26 27 27 27 25 22 20 23 24 23 22 22 21 18
5 6 4 4 11 5 8 9 10 9 7 6 3 1 0 2 5 10 12 10 13 16 17 19 20 21 22 21 21 22 22 22 22 22 22 19 18 20 23 25 27 22 17 13
Wind_Direction
52 76 221 219 195 165 231 291 90 272 67 90 185 97 154 170 171 176 190 198 204 216 218 219 216 223 224 225 225 228 228 231 234 235 238 240 244 244 245 248 250 254 258 260
30 225 216 207 174 178 168 145 289 283 26 97 93 56 124 185 201 194 193 203 211 213 215 220 221 220 225 228 232 234 241 243 245 243 252 253 257 256 259 262 262 258 260 263
171 222 91 197 152 146 111 176 157 143 56 45 99 3 4 145 225 220 217 220 220 218 216 218 224 229 233 235 237 246 245 250 254 256 256 254 260 265 266 273 273 262 270 274
230 268 210 171 147 131 186 213 96 111 91 169 51 233 276 204 239 205 220 221 225 222 221 223 225 229 236 243 245 249 254 256 264 261 265 261 264 272 275 277 284 289 281 274
248 254 116 137 210 177 178 103 61 56 91 101 4 92 253 179 233 221 213 216 223 222 220 221 225 231 236 240 246 250 248 253 256 260 271 274 272 279 286 280 280 291 297 290
246 278 186 201 85 17 128 78 48 57 87 55 223 140 276 192 210 158 198 208 216 215 217 222 223 228 224 226 227 227 234 242 250 255 271 278 284 289 290 293 288 288 288 287
331 268 291 163 107 42 72 57 5 5 12 209 236 86 243 289 217 175 173 193 206 207 208 215 217 215 212 209 213 215 216 228 237 254 263 285 299 297 295 303 299 297 297 292
154 306 199 180 181 168 69 134 143 196 232 268 313 244 249 279 213 158 182 183 186 191 192 201 199 197 200 208 217 218 227 233 245 256 259 286 299 296 297 297 300 297 295 299
144 266 271 204 133 122 177 70 148 104 27 31 291 296 311 18 131 147 165 175 180 183 190 194 188 195 202 207 217 221 230 229 238 241 258 269 284 286 292 294 293 291 289 296
203 102 35 120 101 45 119 148 77 17 136 276 304 283 243 154 223 164 163 182 189 188 188 189 190 197 199 203 210 214 219 225 241 253 271 279 283 287 291 290 290 289 288 285
143 102 271 85 31 166 90 85 55 109 109 160 247 273 216 213 196 191 192 195 193 189 189 190 193 194 198 204 204 206 222 239 252 259 270 286 297 302 296 285 280 285 287 287
184 125 130 137 307 263 121 133 131 122 222 123 152 271 281 256 218 204 206 203 199 194 193 195 198 201 209 210 214 220 226 235 246 261 280 295 296 299 299 294 287 285 283 282
182 311 68 357 359 1 79 102 105 105 89 187 143 260 299 321 195 217 211 204 199 197 199 199 201 206 209 199 210 219 227 243 260 285 296 298 303 306 304 298 292 287 285 286
123 103 157 186 194 139 137 143 133 113 112 172 222 290 306 315 229 192 206 207 197 198 195 192 185 182 186 201 212 226 246 277 288 293 300 304 312 310 306 300 291 286 285 289
105 109 109 36 106 104 141 161 154 120 156 151 226 212 271 258 237 213 190 183 178 174 173 174 179 191 206 219 235 265 282 293 299 297 301 304 311 309 304 297 287 284 287 289
23 140 127 37 10 121 118 148 125 95 123 301 161 274 238 277 231 220 199 182 178 175 177 185 197 208 222 244 266 286 296 302 293 293 300 307 313 311 309 301 287 282 287 289
84 131 102 172 11 69 2 204 171 125 163 160 206 237 327 331 252 181 171 177 177 181 188 200 212 232 255 266 279 300 300 288 287 293 299 308 311 310 310 303 292 287 288 291
116 90 75 123 49 146 246 329 186 147 179 197 258 240 151 133 113 135 149 156 165 186 198 221 247 263 275 282 287 285 286 286 288 290 298 307 312 310 307 300 291 291 293 293
68 114 82 130 171 284 303 196 161 169 222 203 198 180 141 129 116 105 134 143 160 209 250 267 269 271 276 281 284 282 287 291 285 288 302 309 312 308 304 298 292 294 293 293
59 67 105 135 144 197 236 231 181 109 256 201 158 152 143 130 107 243 175 194 226 256 273 278 274 278 282 285 288 292 293 290 292 296 304 309 310 305 300 297 295 294 295 293
47 33 132 136 190 281 266 275 153 129 237 169 168 163 163 154 169 136 200 236 249 269 276 281 285 292 297 300 295 293 292 286 294 299 306 309 307 301 299 296 295 296 296 295
148 135 166 98 110 257 7 123 162 210 121 157 160 166 163 148 153 188 231 254 267 280 291 299 300 301 302 304 303 297 290 294 299 304 308 308 301 299 300 299 296 297 297 296
95 167 174 170 211 271 332 320 114 144 132 132 140 150 166 188 215 239 250 264 288 307 312 311 312 313 312 314 312 302 300 303 308 307 307 307 300 300 299 295 293 290 290 298
16 136 101 95 295 15 76 104 115 132 136 141 151 162 186 255 246 249 278 298 306 311 312 316 319 323 324 327 324 314 307 306 308 305 304 306 304 307 303 295 291 290 290 294
180 104 131 42 328 80 96 120 124 134 142 154 167 191 221 243 263 281 294 308 316 319 320 317 322 324 327 325 320 314 310 308 307 305 302 306 304 319 315 305 300 294 287 287
179 160 145 204 185 156 163 146 155 158 157 166 179 166 336 304 300 303 309 309 310 313 318 322 319 322 327 328 330 325 323 322 318 316 311 302 305 308 316 310 309 301 280 265